Regional Weather Roundup
Issued by NWS

Home | Current Version | Previous Version | Graphics & Text | Print | Product List | Glossary On
Versions: 1 2 3 4 5 6 7 8 9 10 11 12 13 14 15 16 17 18 19 20 21 22 23 24 25 26 27 28 29 30 31 32 33 34 35 36 37 38 39 40 41 42 43 44 45 46 47 48 49 50
000
ASUS43 KMKX 290500
RWRWI

WISCONSIN REGIONAL WEATHER ROUNDUP
NATIONAL WEATHER SERVICE MILWAUKEE/SULLIVAN WI
1200 AM CDT WED MAR 29 2017

NOTE: "FAIR" INDICATES FEW OR NO CLOUDS BELOW 12,000 FEET WITH NO
SIGNIFICANT WEATHER AND/OR OBSTRUCTIONS TO VISIBILITY.

WIZ001-002-006>008-014>016-023>028-290600-
NORTHWEST WISCONSIN

CITY           SKY/WX    TMP DP  RH WIND       PRES   REMARKS
SUPERIOR ARPT  PTCLDY    35  33  92 E10G16    30.29S WCI  27
ASHLAND        CLEAR     33  30  88 NE7       30.28R WCI  27
HAYWARD        PTCLDY    32  23  69 N3        30.24R
SIREN          CLEAR     36  23  59 CALM      30.22S
CUMBERLAND     CLEAR     37  27  65 CALM      30.22R
RICE LAKE      CLEAR     39  28  63 CALM      30.23R
CHETEK         CLEAR     34  29  82 CALM      30.22R
LADYSMITH      CLEAR     35  28  76 CALM      30.24R
EAU CLAIRE     NOT AVBL
MENOMONIE      CLEAR     40  32  73 CALM      30.21S
NEW RICHMOND   CLEAR     37  34  87 CALM      30.21S
OSCEOLA        CLEAR     34  30  85 CALM      30.24R
$$

WIZ003>005-009-010-017-018-290600-
NORTH CENTRAL WISCONSIN

CITY           SKY/WX    TMP DP  RH WIND       PRES   REMARKS
MANITOWISH WTR CLEAR     30  28  90 CALM      30.24S
ARBOR VITAE    CLEAR     40  29  66 E3        30.23S
WOODRUFF       CLEAR     40  29  66 E3        30.23S
RHINELANDER    CLEAR     36  27  69 E5        30.25R WCI  32
EAGLE RIVER    CLEAR     30  25  81 CALM      30.25R
LAND O LAKES   CLEAR     30  26  88 CALM      30.27S
PHILLIPS       CLEAR     37  28  67 CALM      30.23S
TOMAHAWK       CLEAR     29  24  80 CALM      30.24S
MEDFORD        CLEAR     32  29  87 CALM      30.23R
MERRILL        CLEAR     30  27  88 NE3       30.25R
$$

WIZ029-030-035-036-043>047-290600-
CENTRAL WISCONSIN

CITY           SKY/WX    TMP DP  RH WIND       PRES   REMARKS
WAUSAU         CLEAR     39  30  70 CALM      30.23R
MOSINEE        CLEAR     39  28  65 E5        30.25R
MARSHFIELD     CLEAR     42  31  64 E3        30.22R
STEVENS POINT  CLEAR     33  29  88 CALM      30.25R
WAUPACA        CLEAR     36  31  82 CALM      30.26R
WAUTOMA        CLOUDY    33  29  85 CALM      30.25R
WISC RAPIDS    CLOUDY    37  30  75 CALM      30.24R
CAMP DOUGLAS   NOT AVBL
$$

WIZ011>013-019>022-031-037>040-048>050-290600-
NORTHEAST WISCONSIN

CITY           SKY/WX    TMP DP  RH WIND       PRES   REMARKS
ANTIGO         CLEAR     36  28  74 E6        30.25S WCI  31
SHAWANO        CLEAR     36  33  89 CALM      30.27S
OCONTO           N/A     30  29  98 CALM      30.27F
STURGEON BAY   CLEAR     31  30  96 CALM      30.28R
GREEN BAY      CLEAR     35  33  92 NE6       30.27R WCI  30
MANITOWOC      NOT AVBL
APPLETON       CLEAR     41  32  70 E3        30.23S
CLINTONVILLE   CLEAR     36  30  80 NE5       30.26R WCI  32
OSHKOSH        CLEAR     39  33  79 S3        30.23S
$$

WIZ032>034-041-042-053>061-290600-
SOUTHWEST WISCONSIN

CITY           SKY/WX    TMP DP  RH WIND       PRES   REMARKS
LA CROSSE      CLOUDY    44  35  70 SE3       30.21R
SPARTA         CLOUDY    36  32  88 CALM      30.23R
VIROQUA        CLOUDY    43  35  74 CALM      30.21R
BOSCOBEL       CLOUDY    38  35  89 CALM      30.20F
PRAIRIE DU CHI CLOUDY    40  37  89 CALM      30.19F
PLATTEVILLE    CLOUDY    42  39  89 E9        30.20S
$$

WIZ056-057-062-063-064-067-068-290600-
SOUTH CENTRAL WISCONSIN

CITY           SKY/WX    TMP DP  RH WIND       PRES   REMARKS
REEDSBURG      PTCLDY    42  32  67 E3        30.23R
BARABOO/DELLS  PTCLDY    39  32  74 E5        30.23S
LONE ROCK      NOT AVBL
MINERAL POINT  CLOUDY    45  37  76 E6        30.20S
MADISON        CLEAR     40  36  86 E3        30.23R
MIDDLETON      CLEAR     44  39  82 E7        30.23R
WATERTOWN      CLOUDY    35  35 100 E8        30.25R FOG     WCI  29
MONROE         CLOUDY    41  36  81 NE9       30.21R
JANESVILLE     CLOUDY    36  36 100 E6        30.22S WCI  31
$$

WIZ051-052-058>065-066-070>072-290600-
SOUTHEAST WISCONSIN

CITY           SKY/WX    TMP DP  RH WIND       PRES   REMARKS
MILWAUKEE      FOG       34  33  96 VRB5      30.25S VSB 1/4 WCI  30
WAUKESHA       FOG       32  32 100 NE3       30.26R VSB 1/4
MILWAUKEE/TIMM FOG       32  32 100 CALM      30.27R VSB 1/2
RACINE         FOG       33  32  96 N9        30.26S VSB 1/4 WCI  25
KENOSHA        FOG       34  34 100 CALM      30.24S VSB<1/4
FOND DU LAC    CLEAR     38  32  79 CALM      30.24S
SHEBOYGAN      CLEAR     31  30  96 CALM      30.24S FOG
WEST BEND      FOG       34  34 100 CALM      30.25S VSB 1/4
JUNEAU         CLEAR     37  34  89 E5        30.25R WCI  33
$$

LSZ147-162-290600-
LAKE SUPERIOR

STATION/POSITION TIME  TEMP    WIND        PRES    WAVE
                       AIR SEA DIR/SP/G            HT/PER
                 (UTC) (F)     (DEG/KT/KT) (MB)    (FT/S)
DEVILS ISLAND    0400   35      40/ 15/ 16 1026.7R
PORT WING        0430   35      50/ 12/ 16 1025.7R
SAXON HARBOR     0430   30     200/  3/  4 1024.7R
$$

LMZ867-665-643>646-290600-
LAKE MICHIGAN

STATION/POSITION TIME  TEMP    WIND        PRES    WAVE
                       AIR SEA DIR/SP/G            HT/PER
                 (UTC) (F)     (DEG/KT/KT) (MB)    (FT/S)
CHAMBERS ISLAND  0440   30        CALM     1025.1S
NORTHPORT PIER   0440   33     310/  4/  6 1025.4R
SISTER BAY       0351   31        CALM       N/A
KEWAUNEE LAKESHO 0430   31     310/  3/  5 1024.0F
SHEBOYGAN LAKESH 0400   33     250/  2/  3 1024.9R
PORT WASHINGTON  0440   34     260/  2/  5 1025.4F
MILWAUKEE LAKESH 0430   33      10/  6/  8   N/A
KENOSHA   LAKESH 0400   34      20/ 10/ 13 1024.0
$$

TC  - TEMPERATURE IN CELSIUS
VSB - VISIBILITY IN STATUTE MILES
WCI - WIND CHILL INDEX
HX  - HEAT INDEX




USA.gov is the U.S. government's official web portal to all federal, state and local government web resources and services.